Location: Breux
(46.3269°N, 3.2993°E)
Time: 15:48:51
(UTC+00:00)

Nadezhda 3 Rocket - Pass Details

Date: 09 April 2020
Orbit: 956 x 1000 km, 82.9° (Epoch: 27 May)

Event Time Altitude Azimuth Distance (km) Brightness Sun altitude
Exits shadow 21:41:24 66° 214° (SSW) 1,071 4.0 -28.8°
Maximum altitude 21:42:17 80° 278° (W) 1,008 4.0 -28.8°
Drops below altitude 10° 21:48:35 10° 7° (N) 2,742 6.9 -29.5°
Sets 21:51:07 0° 8° (N) 3,687 7.7 -29.7°
